QPF
0.06 0.04 0.06 0.07 0.03 0.00 0.00 0.00 0.00 0.00 0.00 0.00 0.00 0.00 0.00 0.00 0.00 0.00 0.00 0.00 0.00 0.00 0.05 0.03 0.03 0.03 0.01 0.00 0.00 0.00 0.00 0.00 0.00 0.00 0.00 0.03 0.02 0.00 0.00 0.00 0.00 0.00 0.00
0.12 0.04 0.06 0.06 0.04 0.00 0.00 0.00 0.00 0.00 0.00 0.00 0.00 0.00 0.00 0.00 0.00 0.00 0.00 0.00 0.00 0.00 0.03 0.04 0.02 0.04 0.01 0.01 0.00 0.00 0.00 0.01 0.00 0.00 0.00 0.00 0.00 0.00 0.00 0.00 0.00 0.00 0.00
0.13 0.01 0.04 0.04 0.02 0.01 0.00 0.00 0.01 0.00 0.00 0.00 0.00 0.00 0.00 0.00 0.00 0.00 0.00 0.00 0.00 0.00 0.00 0.03 0.06 0.01 0.01 0.03 0.05 0.04 0.01 0.00 0.00 0.00 0.00 0.00 0.01 0.00 0.00 0.00 0.00 0.00 0.00
0.04 0.01 0.04 0.02 0.03 0.02 0.02 0.01 0.00 0.00 0.00 0.00 0.00 0.00 0.00 0.00 0.00 0.00 0.00 0.00 0.00 0.00 0.00 0.02 0.02 0.03 0.01 0.00 0.07 0.14 0.09 0.05 0.06 0.02 0.00 0.00 0.00 0.00 0.00 0.00 0.00 0.00 0.00
0.05 0.05 0.04 0.02 0.05 0.04 0.08 0.03 0.00 0.00 0.00 0.00 0.00 0.00 0.00 0.00 0.00 0.00 0.00 0.00 0.00 0.00 0.00 0.00 0.00 0.00 0.00 0.00 0.03 0.03 0.05 0.05 0.09 0.06 0.03 0.01 0.01 0.01 0.01 0.00 0.00 0.00 0.00
0.02 0.08 0.05 0.04 0.04 0.07 0.03 0.01 0.00 0.00 0.00 0.00 0.00 0.00 0.00 0.00 0.00 0.00 0.00 0.00 0.00 0.00 0.00 0.00 0.00 0.02 0.02 0.04 0.04 0.03 0.02 0.02 0.03 0.08 0.07 0.03 0.02 0.00 0.00 0.00 0.00 0.00 0.00
0.02 0.02 0.02 0.03 0.02 0.01 0.00 0.00 0.00 0.00 0.00 0.00 0.00 0.00 0.00 0.00 0.00 0.00 0.00 0.00 0.00 0.00 0.00 0.00 0.00 0.00 0.02 0.03 0.09 0.06 0.04 0.03 0.03 0.04 0.06 0.05 0.03 0.02 0.01 0.01 0.00 0.00 0.00
0.02 0.02 0.01 0.01 0.00 0.00 0.00 0.00 0.00 0.00 0.00 0.00 0.00 0.00 0.00 0.00 0.00 0.00 0.00 0.00 0.00 0.00 0.00 0.00 0.00 0.00 0.00 0.01 0.01 0.00 0.00 0.00 0.01 0.01 0.04 0.06 0.06 0.06 0.05 0.04 0.03 0.01 0.00
0.02 0.01 0.00 0.00 0.00 0.00 0.00 0.00 0.00 0.00 0.00 0.01 0.00 0.00 0.00 0.00 0.00 0.00 0.00 0.00 0.00 0.00 0.00 0.00 0.00 0.00 0.00 0.00 0.00 0.00 0.00 0.00 0.00 0.00 0.00 0.02 0.06 0.04 0.04 0.03 0.03 0.03 0.02
0.00 0.00 0.00 0.00 0.00 0.00 0.00 0.00 0.00 0.00 0.00 0.00 0.00 0.00 0.00 0.00 0.00 0.00 0.00 0.00 0.00 0.00 0.00 0.00 0.00 0.00 0.00 0.00 0.00 0.00 0.00 0.00 0.00 0.00 0.00 0.00 0.00 0.02 0.03 0.03 0.02 0.01 0.01
0.00 0.00 0.00 0.00 0.00 0.00 0.00 0.00 0.00 0.00 0.00 0.00 0.00 0.00 0.00 0.00 0.00 0.00 0.00 0.00 0.00 0.00 0.00 0.00 0.00 0.00 0.00 0.00 0.00 0.00 0.00 0.00 0.00 0.00 0.00 0.00 0.00 0.00 0.00 0.01 0.04 0.07 0.05
0.00 0.00 0.00 0.00 0.00 0.00 0.00 0.00 0.00 0.00 0.00 0.00 0.00 0.00 0.00 0.00 0.00 0.00 0.00 0.00 0.00 0.00 0.00 0.00 0.00 0.00 0.00 0.00 0.00 0.00 0.00 0.00 0.00 0.00 0.00 0.00 0.00 0.00 0.00 0.00 0.00 0.01 0.04
0.00 0.00 0.00 0.00 0.00 0.00 0.00 0.00 0.00 0.00 0.00 0.00 0.00 0.00 0.00 0.00 0.00 0.00 0.00 0.00 0.00 0.00 0.00 0.00 0.00 0.00 0.00 0.00 0.00 0.00 0.00 0.00 0.00 0.00 0.00 0.00 0.00 0.00 0.00 0.00 0.00 0.00 0.00
0.00 0.00 0.00 0.00 0.00 0.00 0.00 0.00 0.00 0.00 0.00 0.00 0.00 0.00 0.00 0.00 0.00 0.00 0.00 0.00 0.00 0.00 0.00 0.00 0.00 0.00 0.00 0.00 0.00 0.00 0.00 0.00 0.00 0.00 0.00 0.00 0.00 0.00 0.00 0.00 0.00 0.00 0.00
0.00 0.00 0.00 0.00 0.00 0.00 0.00 0.00 0.00 0.00 0.00 0.00 0.00 0.00 0.00 0.00 0.00 0.00 0.01 0.01 0.00 0.00 0.00 0.00 0.00 0.00 0.00 0.00 0.00 0.00 0.00 0.00 0.00 0.00 0.00 0.00 0.00 0.00 0.00 0.00 0.00 0.00 0.00
0.00 0.00 0.00 0.00 0.00 0.00 0.00 0.00 0.00 0.00 0.00 0.00 0.00 0.00 0.00 0.00 0.00 0.00 0.00 0.00 0.00 0.00 0.00 0.00 0.00 0.00 0.00 0.00 0.00 0.00 0.00 0.00 0.00 0.00 0.00 0.00 0.00 0.00 0.00 0.00 0.00 0.00 0.00
0.00 0.00 0.00 0.00 0.00 0.00 0.00 0.00 0.00 0.00 0.00 0.00 0.00 0.00 0.00 0.00 0.00 0.00 0.00 0.00 0.00 0.01 0.00 0.00 0.00 0.00 0.00 0.00 0.00 0.00 0.00 0.00 0.00 0.00 0.00 0.00 0.00 0.00 0.00 0.00 0.00 0.00 0.00
0.00 0.00 0.00 0.00 0.00 0.00 0.00 0.00 0.00 0.00 0.00 0.00 0.00 0.00 0.00 0.00 0.01 0.00 0.00 0.00 0.00 0.01 0.01 0.00 0.00 0.00 0.00 0.00 0.00 0.00 0.00 0.00 0.00 0.00 0.00 0.00 0.00 0.00 0.00 0.00 0.00 0.00 0.00
0.00 0.00 0.00 0.00 0.00 0.00 0.00 0.00 0.00 0.00 0.00 0.00 0.00 0.00 0.00 0.00 0.01 0.00 0.00 0.00 0.00 0.00 0.01 0.01 0.00 0.00 0.00 0.00 0.00 0.00 0.00 0.00 0.00 0.00 0.00 0.00 0.00 0.00 0.00 0.00 0.00 0.00 0.00
0.00 0.00 0.00 0.00 0.00 0.00 0.00 0.00 0.00 0.00 0.00 0.00 0.00 0.00 0.01 0.01 0.00 0.00 0.00 0.00 0.00 0.00 0.00 0.01 0.01 0.00 0.00 0.00 0.00 0.00 0.00 0.00 0.00 0.00 0.00 0.00 0.00 0.00 0.00 0.00 0.00 0.00 0.00
0.00 0.00 0.00 0.00 0.00 0.00 0.00 0.00 0.00 0.00 0.00 0.00 0.00 0.00 0.00 0.00 0.00 0.00 0.00 0.00 0.00 0.00 0.00 0.00 0.00 0.00 0.00 0.00 0.00 0.00 0.00 0.00 0.00 0.00 0.00 0.00 0.00 0.00 0.00 0.00 0.00 0.00 0.00
0.06 0.05 0.02 0.00 0.00 0.00 0.00 0.00 0.00 0.00 0.00 0.00 0.01 0.02 0.02 0.00 0.01 0.02 0.00 0.00 0.00 0.00 0.01 0.00 0.00 0.02 0.03 0.02 0.01 0.01 0.01 0.00 0.00 0.00 0.00 0.00 0.00 0.00 0.00 0.00 0.00 0.00 0.00
0.14 0.03 0.01 0.00 0.00 0.00 0.00 0.00 0.00 0.00 0.00 0.02 0.05 0.05 0.06 0.01 0.04 0.01 0.02 0.00 0.00 0.00 0.00 0.01 0.01 0.02 0.03 0.01 0.01 0.01 0.01 0.01 0.00 0.00 0.00 0.00 0.00 0.00 0.00 0.00 0.00 0.00 0.00
0.03 0.01 0.00 0.00 0.00 0.01 0.00 0.00 0.00 0.00 0.01 0.02 0.05 0.06 0.07 0.06 0.06 0.02 0.01 0.00 0.00 0.00 0.00 0.01 0.01 0.00 0.00 0.00 0.00 0.00 0.00 0.00 0.00 0.00 0.00 0.00 0.00 0.00 0.00 0.00 0.00 0.00 0.00
0.00 0.00 0.00 0.00 0.00 0.02 0.02 0.02 0.02 0.00 0.00 0.00 0.01 0.02 0.04 0.04 0.03 0.01 0.00 0.00 0.00 0.00 0.00 0.00 0.00 0.00 0.00 0.00 0.00 0.00 0.00 0.00 0.00 0.00 0.00 0.00 0.00 0.00 0.00 0.00 0.00 0.00 0.00
0.00 0.00 0.00 0.00 0.00 0.00 0.01 0.00 0.00 0.00 0.00 0.00 0.01 0.01 0.02 0.01 0.00 0.00 0.00 0.00 0.00 0.00 0.00 0.00 0.00 0.00 0.00 0.00 0.00 0.00 0.00 0.01 0.01 0.00 0.00 0.00 0.00 0.00 0.00 0.00 0.00 0.00 0.00
MSLP
1018.14 1018.12 1018.42 1018.47 1018.46 1017.99 1017.77 1018.11 1018.13 1018.10 1018.22 1017.88 1017.84 1017.79 1017.49 1017.38 1017.57 1017.32 1017.06 1017.60 1018.05 1018.18 1018.25 1018.36 1018.49 1018.76 1019.06 1019.37 1019.65 1019.80 1020.05 1020.34 1020.64 1020.87 1021.05 1021.27 1021.57 1021.64 1021.75 1021.87 1021.94 1022.00 1022.13
1018.18 1018.12 1018.16 1018.23 1018.17 1017.94 1017.86 1018.09 1018.22 1018.21 1018.00 1017.73 1017.68 1017.82 1017.60 1017.21 1017.29 1017.48 1017.03 1017.01 1017.73 1018.00 1018.09 1018.16 1018.23 1018.47 1018.71 1019.09 1019.45 1019.59 1019.75 1020.01 1020.28 1020.55 1020.73 1021.01 1021.19 1021.38 1021.52 1021.63 1021.71 1021.80 1021.89
1018.34 1018.30 1017.81 1018.15 1017.99 1018.15 1018.43 1018.11 1018.19 1017.85 1017.57 1017.52 1017.51 1017.37 1017.31 1017.22 1017.02 1017.24 1017.05 1016.81 1016.82 1017.57 1017.81 1017.94 1017.97 1018.26 1018.39 1018.72 1018.98 1019.21 1019.44 1019.67 1019.95 1020.20 1020.36 1020.58 1020.88 1021.08 1021.23 1021.32 1021.38 1021.46 1021.56
1018.05 1017.95 1017.70 1017.79 1017.78 1018.10 1017.92 1017.58 1017.78 1017.67 1017.40 1017.51 1017.43 1017.26 1017.17 1017.10 1017.15 1017.01 1016.86 1016.94 1016.67 1016.59 1017.05 1017.48 1017.82 1017.91 1018.10 1018.33 1018.47 1018.69 1019.04 1019.26 1019.49 1019.79 1019.99 1020.17 1020.42 1020.68 1020.89 1020.98 1021.03 1021.06 1021.12
1017.62 1017.68 1017.64 1017.69 1018.01 1017.93 1018.45 1018.16 1017.69 1017.91 1017.54 1017.37 1017.26 1017.05 1017.05 1016.95 1016.87 1016.56 1016.81 1016.75 1016.76 1016.59 1016.40 1017.16 1017.57 1017.84 1017.88 1017.89 1017.99 1018.25 1018.55 1018.79 1019.15 1019.41 1019.64 1019.84 1020.00 1020.20 1020.44 1020.57 1020.65 1020.71 1020.73
1017.32 1017.72 1017.52 1017.67 1017.92 1018.23 1017.76 1017.79 1018.20 1017.83 1018.04 1017.71 1017.49 1017.07 1017.12 1016.99 1016.92 1016.78 1016.67 1016.60 1017.03 1016.70 1016.54 1016.79 1016.51 1016.51 1017.76 1017.97 1017.97 1017.91 1018.03 1018.28 1018.54 1018.92 1019.12 1019.35 1019.53 1019.73 1019.92 1020.08 1020.21 1020.28 1020.36
1016.89 1017.12 1016.94 1017.41 1017.55 1017.61 1017.70 1018.04 1018.10 1017.82 1017.68 1017.57 1017.47 1016.59 1016.76 1017.18 1017.00 1016.96 1016.83 1017.07 1017.17 1016.80 1017.05 1017.05 1016.93 1017.03 1016.81 1017.52 1018.08 1018.20 1018.13 1018.03 1018.19 1018.24 1018.61 1018.83 1018.99 1019.17 1019.37 1019.61 1019.73 1019.82 1019.92
1016.78 1016.96 1017.02 1017.05 1017.31 1017.29 1017.97 1018.19 1018.31 1017.83 1017.50 1017.72 1017.36 1017.11 1016.21 1016.39 1016.45 1016.81 1017.24 1017.35 1017.50 1017.07 1017.15 1017.30 1017.49 1017.73 1017.43 1017.35 1018.23 1018.40 1018.39 1018.33 1018.24 1018.21 1018.16 1018.23 1018.43 1018.63 1018.84 1018.95 1019.14 1019.34 1019.43
1016.44 1016.72 1016.91 1016.87 1017.40 1017.76 1017.35 1018.02 1018.09 1018.18 1017.31 1017.62 1018.11 1017.56 1016.48 1015.90 1016.49 1016.67 1017.32 1017.38 1017.70 1017.63 1017.48 1017.43 1017.60 1017.92 1018.08 1017.84 1017.86 1018.28 1018.85 1018.69 1018.38 1018.19 1018.16 1018.14 1018.16 1018.11 1018.21 1018.36 1018.52 1018.73 1018.87
1015.96 1016.42 1016.80 1017.09 1017.45 1017.14 1017.56 1017.73 1017.95 1018.11 1018.14 1017.41 1017.66 1018.00 1018.14 1017.89 1016.83 1016.25 1016.64 1017.12 1017.46 1017.40 1017.89 1017.59 1017.53 1017.69 1017.95 1017.74 1018.44 1019.03 1019.04 1018.90 1018.68 1018.47 1018.36 1018.28 1018.17 1018.02 1017.82 1017.79 1017.90 1018.03 1018.14
1015.76 1016.06 1016.49 1016.86 1017.18 1017.20 1017.57 1017.84 1018.00 1018.29 1018.00 1017.88 1017.67 1017.60 1018.01 1017.92 1018.04 1017.39 1016.70 1016.66 1016.93 1017.18 1017.55 1017.42 1017.61 1017.45 1017.67 1017.91 1017.75 1018.46 1018.75 1018.75 1018.84 1018.70 1018.43 1018.26 1018.18 1018.02 1017.85 1017.59 1017.41 1017.42 1017.51
1015.31 1015.81 1016.23 1016.52 1016.75 1016.88 1017.40 1017.59 1017.89 1018.17 1018.31 1018.29 1017.94 1017.95 1017.73 1017.55 1017.24 1017.20 1016.93 1016.82 1016.92 1016.80 1017.04 1017.27 1017.25 1017.32 1017.40 1017.49 1017.93 1018.44 1018.54 1018.50 1018.43 1018.30 1018.28 1018.22 1018.03 1017.81 1017.66 1017.52 1017.31 1017.02 1016.86
1014.65 1015.40 1016.22 1016.57 1016.75 1017.11 1017.27 1017.52 1017.95 1018.05 1018.35 1018.31 1018.44 1017.71 1017.61 1017.72 1017.74 1017.58 1017.25 1016.78 1016.60 1016.60 1016.77 1017.12 1016.96 1017.25 1017.31 1017.37 1017.37 1018.09 1017.99 1018.09 1018.17 1018.10 1018.05 1017.85 1017.72 1017.61 1017.37 1017.20 1017.07 1016.89 1016.62
1014.36 1015.01 1016.12 1016.35 1016.56 1016.73 1017.02 1017.35 1017.60 1017.92 1018.04 1018.29 1018.30 1018.43 1017.98 1017.43 1017.46 1017.52 1017.41 1017.10 1016.50 1015.98 1015.82 1016.34 1016.52 1016.83 1017.08 1017.14 1017.29 1017.86 1017.28 1017.52 1017.67 1017.83 1017.72 1017.59 1017.50 1017.34 1017.16 1016.88 1016.67 1016.56 1016.39
1014.26 1014.98 1015.44 1016.20 1016.46 1016.77 1017.09 1017.38 1017.26 1017.51 1017.72 1017.94 1017.82 1017.91 1018.00 1017.47 1017.24 1017.19 1017.26 1017.43 1017.06 1016.18 1015.69 1015.46 1015.77 1016.13 1016.62 1016.65 1016.86 1017.13 1016.86 1016.70 1017.08 1017.05 1017.10 1017.01 1016.86 1016.77 1016.73 1016.51 1016.18 1015.96 1015.83
1014.58 1015.04 1015.62 1015.69 1015.94 1016.70 1017.29 1017.47 1017.08 1017.09 1017.38 1017.38 1017.28 1017.34 1017.70 1017.48 1017.10 1016.95 1017.00 1017.06 1016.83 1016.49 1015.87 1015.70 1015.40 1015.70 1015.82 1016.33 1016.65 1016.78 1016.50 1016.38 1016.04 1016.08 1016.13 1016.06 1016.09 1016.00 1015.89 1015.78 1015.56 1015.32 1015.07
1014.52 1015.21 1015.82 1015.97 1015.99 1016.02 1016.94 1017.33 1017.14 1016.84 1016.88 1017.16 1017.26 1017.14 1017.18 1017.40 1017.19 1016.87 1016.59 1016.66 1016.67 1016.56 1016.33 1015.60 1015.68 1015.44 1015.68 1015.80 1015.80 1016.04 1015.93 1015.57 1015.01 1014.90 1015.13 1015.30 1015.28 1015.21 1015.03 1014.88 1014.70 1014.51 1014.30
1013.52 1014.23 1015.41 1016.21 1016.40 1016.05 1016.38 1016.88 1016.83 1016.26 1016.31 1016.53 1016.62 1016.75 1016.62 1016.61 1016.73 1016.94 1016.80 1016.65 1016.51 1016.66 1016.49 1016.15 1015.79 1015.55 1015.24 1015.05 1014.96 1015.20 1015.11 1014.64 1014.29 1013.92 1014.48 1014.50 1014.19 1014.08 1013.92 1013.79 1013.64 1013.45 1013.32
1012.86 1013.60 1012.65 1014.33 1015.30 1015.66 1015.86 1016.06 1016.23 1016.05 1015.92 1016.02 1016.13 1016.18 1016.22 1016.30 1016.33 1016.26 1016.55 1016.29 1015.98 1015.88 1015.65 1015.47 1015.32 1015.12 1014.82 1014.50 1014.10 1014.24 1013.94 1013.65 1013.42 1012.86 1012.90 1013.11 1012.98 1012.85 1012.69 1012.42 1012.26 1012.16 1012.08
1012.15 1012.37 1011.77 1012.84 1013.85 1015.11 1015.33 1015.40 1015.42 1015.45 1015.47 1015.46 1015.70 1015.76 1015.82 1015.84 1015.81 1015.90 1016.11 1016.17 1016.02 1015.92 1015.40 1015.25 1014.58 1013.95 1014.08 1013.94 1013.35 1013.35 1012.76 1012.19 1011.94 1011.70 1011.70 1011.90 1011.60 1011.20 1011.08 1010.85 1010.85 1010.69 1010.49
1011.31 1011.26 1011.28 1012.23 1013.16 1014.01 1014.18 1014.65 1014.72 1014.76 1014.97 1014.94 1014.99 1015.13 1015.26 1015.38 1015.35 1015.35 1015.42 1015.21 1015.52 1015.35 1014.95 1014.79 1014.18 1013.54 1013.55 1013.53 1013.32 1012.68 1012.30 1011.75 1011.53 1011.29 1010.68 1010.45 1010.08 1009.50 1009.10 1009.10 1008.87 1008.82 1008.84
1009.91 1010.55 1010.98 1011.68 1012.45 1013.03 1013.02 1013.42 1014.05 1014.11 1014.31 1014.34 1014.34 1014.62 1015.03 1015.02 1015.06 1015.32 1015.41 1015.40 1015.63 1015.52 1015.24 1014.77 1014.20 1013.56 1013.48 1013.79 1012.99 1012.60 1012.41 1011.97 1011.12 1010.91 1010.43 1009.94 1009.73 1008.69 1008.29 1007.91 1007.43 1007.33 1007.35
1009.89 1010.06 1010.59 1011.29 1011.86 1012.22 1012.52 1013.00 1013.49 1013.85 1013.86 1013.67 1013.98 1014.47 1014.78 1014.88 1014.86 1014.89 1014.77 1015.09 1015.03 1014.75 1014.83 1014.71 1014.33 1013.79 1013.69 1013.29 1013.03 1013.08 1012.60 1011.99 1011.36 1010.70 1010.67 1009.26 1008.84 1007.66 1007.36 1006.50 1006.61 1006.38 1006.15
1009.53 1010.06 1010.54 1011.06 1011.41 1011.61 1011.96 1012.72 1013.18 1013.53 1013.65 1013.37 1013.51 1013.72 1013.92 1014.33 1014.50 1014.39 1014.32 1014.21 1014.15 1013.93 1013.71 1013.76 1013.67 1013.53 1013.51 1013.51 1013.52 1013.17 1012.71 1011.91 1011.40 1010.73 1009.72 1008.11 1007.41 1006.49 1006.34 1005.80 1005.47 1005.11 1004.62
1008.84 1009.12 1009.72 1010.12 1010.72 1011.08 1011.50 1011.83 1012.64 1012.57 1012.57 1012.93 1013.12 1012.93 1012.93 1013.19 1014.26 1014.54 1014.43 1013.98 1013.59 1013.26 1013.12 1013.50 1013.76 1013.90 1013.78 1013.56 1013.48 1013.00 1011.77 1011.10 1010.31 1009.83 1009.04 1007.43 1006.86 1006.18 1006.01 1004.82 1004.08 1003.31 1002.69
1007.85 1008.40 1008.98 1009.52 1009.72 1010.27 1010.80 1011.15 1011.67 1011.55 1011.93 1012.27 1012.46 1012.56 1012.77 1013.10 1013.89 1014.55 1014.31 1013.71 1013.26 1012.92 1012.76 1012.94 1013.10 1012.84 1012.45 1011.77 1011.94 1012.09 1011.58 1011.07 1010.34 1009.04 1007.83 1007.28 1006.73 1007.05 1004.93 1004.25 1002.91 1002.23 1001.42
Thickness
5763 5762 5759 5759 5758 5760 5761 5757 5756 5756 5754 5756 5755 5754 5755 5755 5751 5751 5751 5748 5744 5741 5740 5739 5739 5736 5735 5732 5731 5730 5729 5726 5724 5723 5722 5720 5717 5717 5717 5717 5717 5717 5716
5763 5763 5762 5761 5761 5762 5762 5759 5757 5756 5756 5757 5756 5753 5754 5756 5754 5751 5753 5751 5745 5742 5740 5738 5737 5735 5733 5730 5728 5729 5728 5727 5725 5723 5722 5721 5720 5719 5719 5719 5719 5718 5718
5763 5762 5765 5761 5762 5760 5757 5759 5757 5759 5760 5758 5757 5756 5755 5754 5754 5751 5751 5752 5750 5744 5740 5738 5737 5734 5732 5729 5728 5728 5728 5727 5726 5724 5723 5722 5721 5720 5719 5720 5720 5720 5720
5765 5765 5766 5764 5763 5760 5760 5762 5760 5760 5761 5759 5757 5757 5756 5754 5753 5753 5750 5748 5749 5749 5745 5741 5736 5735 5732 5730 5729 5728 5728 5727 5726 5725 5724 5723 5722 5721 5720 5721 5722 5722 5723
5767 5766 5766 5764 5761 5761 5755 5756 5760 5757 5758 5759 5757 5758 5756 5756 5754 5754 5751 5749 5748 5748 5747 5740 5735 5732 5731 5730 5730 5728 5728 5728 5725 5724 5724 5723 5723 5723 5722 5722 5723 5724 5725
5770 5766 5767 5764 5761 5758 5761 5760 5755 5758 5754 5755 5754 5755 5754 5754 5751 5751 5751 5749 5742 5745 5745 5743 5743 5740 5729 5727 5726 5727 5727 5727 5726 5724 5724 5723 5723 5723 5723 5723 5724 5725 5726
5772 5770 5771 5766 5763 5762 5760 5757 5755 5754 5753 5755 5751 5755 5754 5750 5748 5748 5746 5742 5740 5742 5737 5736 5735 5733 5734 5729 5725 5722 5722 5724 5724 5724 5722 5723 5724 5723 5723 5723 5724 5726 5727
5773 5771 5769 5767 5763 5763 5755 5752 5750 5750 5751 5750 5745 5745 5744 5747 5749 5747 5741 5738 5735 5736 5733 5730 5727 5725 5725 5724 5718 5718 5719 5719 5720 5720 5722 5723 5723 5723 5722 5724 5724 5725 5727
5772 5769 5767 5765 5759 5756 5758 5751 5750 5745 5748 5747 5742 5739 5739 5739 5739 5743 5735 5735 5729 5727 5727 5726 5725 5720 5717 5718 5718 5714 5710 5711 5714 5716 5717 5718 5719 5721 5723 5723 5724 5724 5726
5772 5767 5763 5760 5756 5756 5753 5751 5749 5746 5742 5741 5741 5737 5733 5731 5730 5728 5736 5731 5728 5727 5721 5719 5719 5717 5715 5714 5708 5704 5704 5704 5705 5707 5708 5710 5712 5714 5718 5721 5722 5724 5725
5770 5766 5761 5757 5754 5751 5748 5746 5743 5739 5740 5737 5734 5733 5727 5726 5722 5720 5717 5722 5726 5725 5721 5720 5715 5714 5711 5707 5708 5703 5700 5699 5697 5697 5701 5703 5704 5706 5710 5714 5718 5721 5723
5770 5763 5759 5755 5752 5749 5744 5742 5739 5735 5731 5729 5730 5727 5724 5722 5722 5718 5714 5714 5711 5719 5720 5715 5714 5710 5706 5704 5700 5696 5694 5692 5693 5694 5694 5695 5697 5700 5702 5706 5711 5716 5720
5768 5761 5754 5749 5746 5739 5736 5734 5730 5729 5725 5722 5719 5723 5724 5720 5718 5716 5713 5711 5709 5711 5709 5707 5708 5705 5702 5697 5694 5689 5688 5688 5687 5688 5688 5689 5691 5692 5696 5699 5702 5707 5712
5767 5761 5748 5743 5740 5737 5733 5730 5728 5725 5722 5717 5715 5712 5713 5719 5717 5713 5707 5706 5704 5710 5711 5703 5704 5697 5692 5689 5687 5682 5683 5682 5680 5679 5681 5681 5682 5684 5686 5690 5695 5699 5704
5765 5756 5748 5739 5733 5730 5727 5724 5725 5722 5719 5715 5714 5712 5708 5711 5712 5711 5707 5702 5698 5694 5698 5705 5698 5698 5691 5688 5681 5676 5676 5677 5674 5675 5673 5674 5675 5677 5679 5682 5686 5691 5697
5758 5752 5743 5739 5736 5725 5718 5716 5719 5719 5715 5713 5713 5709 5704 5703 5704 5705 5702 5697 5696 5692 5690 5696 5696 5693 5688 5682 5675 5668 5667 5667 5669 5669 5669 5669 5669 5670 5672 5675 5680 5683 5689
5751 5740 5733 5728 5726 5725 5716 5710 5710 5712 5709 5705 5704 5703 5702 5697 5696 5696 5696 5692 5687 5686 5679 5687 5686 5686 5679 5674 5669 5662 5658 5658 5662 5663 5660 5658 5660 5662 5664 5668 5672 5677 5681
5754 5743 5731 5721 5715 5715 5711 5704 5703 5709 5705 5701 5700 5698 5698 5697 5693 5688 5685 5682 5679 5675 5672 5667 5671 5670 5671 5669 5665 5655 5650 5651 5654 5657 5650 5649 5653 5655 5658 5662 5666 5670 5675
5753 5741 5747 5722 5714 5711 5708 5704 5699 5701 5700 5698 5695 5693 5691 5688 5685 5684 5678 5676 5677 5675 5673 5668 5665 5665 5662 5660 5657 5650 5650 5647 5647 5651 5650 5646 5647 5650 5652 5657 5661 5665 5669
5752 5745 5747 5733 5721 5713 5706 5700 5697 5697 5696 5693 5689 5687 5685 5683 5681 5678 5673 5669 5668 5664 5666 5660 5661 5663 5654 5651 5650 5644 5644 5648 5644 5643 5641 5638 5641 5645 5649 5654 5656 5659 5665
5752 5750 5745 5736 5725 5714 5707 5698 5696 5693 5689 5688 5687 5684 5682 5679 5677 5675 5671 5669 5662 5659 5658 5653 5653 5653 5643 5636 5633 5639 5637 5639 5635 5634 5635 5635 5638 5645 5649 5651 5653 5656 5660
5759 5750 5742 5734 5723 5715 5710 5705 5696 5692 5687 5684 5681 5677 5672 5671 5669 5663 5660 5656 5652 5648 5644 5641 5640 5639 5632 5624 5628 5626 5623 5621 5621 5626 5624 5627 5628 5638 5643 5644 5647 5650 5656
5750 5745 5738 5729 5720 5715 5706 5700 5691 5685 5681 5681 5675 5666 5662 5661 5658 5659 5655 5647 5643 5640 5635 5633 5629 5626 5620 5619 5616 5610 5611 5611 5611 5616 5612 5620 5624 5634 5635 5640 5638 5642 5650
5745 5736 5728 5721 5714 5709 5703 5691 5684 5678 5674 5674 5669 5665 5663 5656 5654 5652 5649 5644 5641 5637 5634 5629 5624 5620 5615 5609 5602 5601 5600 5602 5604 5606 5611 5616 5623 5627 5626 5625 5627 5633 5645
5740 5735 5728 5721 5711 5705 5697 5691 5680 5679 5674 5666 5663 5663 5662 5657 5645 5635 5635 5634 5632 5629 5625 5619 5610 5604 5601 5597 5591 5593 5596 5596 5599 5600 5605 5612 5614 5609 5604 5613 5619 5628 5641
5739 5732 5722 5715 5711 5701 5694 5686 5678 5678 5668 5663 5661 5658 5652 5646 5636 5627 5625 5624 5622 5620 5615 5608 5604 5604 5600 5599 5593 5588 5585 5581 5583 5593 5603 5600 5601 5583 5596 5604 5614 5621 5634